K9EE Weather Reports


Display with metric or nautical units.
time (UTC)temp
F
wind
direction
speed
MPH
gust
MPH
rain 1hr
in
rain 24hr
in
rain mn
in
humidity
%
barometer
mb
20240224030904 70 71 4.0 6.0 0.00 0.00 0.00 77 1010.4
20240224030004 70 71 3.0 5.0 0.00 0.00 0.00 76 1010.3
20240224025404 70 71 3.0 9.0 0.00 0.00 0.00 76 1010.3
20240224024503 70 71 3.0 4.0 0.00 0.00 0.00 76 1010.4
20240224023603 70 71 4.0 6.0 0.00 0.00 0.00 75 1010.3
20240224022913 70 71 3.0 8.0 0.00 0.00 0.00 74 1010.4
20240224021804 71 71 3.0 2.0 0.00 0.00 0.00 73 1010.4
20240224020903 71 71 3.0 4.0 0.00 0.00 0.00 73 1010.4
20240224020003 71 71 4.0 5.0 0.00 0.00 0.00 72 1010.4
20240224015403 71 71 4.0 11.0 0.00 0.00 0.00 72 1010.4
20240224014503 71 71 4.0 5.0 0.00 0.00 0.00 72 1010.3
20240224013605 71 71 3.0 9.0 0.00 0.00 0.00 72 1010.3
20240224012703 72 72 3.0 5.0 0.00 0.00 0.00 72 1010.3
20240224011803 72 72 5.0 5.0 0.00 0.00 0.00 71 1010.1
20240224011119 72 73 5.0 10.0 0.00 0.00 0.00 71 1010.2
20240224010216 72 73 4.0 12.0 0.00 0.00 0.00 70 1010.0
20240224005404 72 73 5.0 5.0 0.00 0.00 0.00 70 1009.9
20240224004504 72 74 4.0 9.0 0.00 0.00 0.00 70 1009.8
20240224003603 73 81 4.0 9.0 0.00 0.00 0.00 69 1009.7
20240224002703 73 80 4.0 8.0 0.00 0.00 0.00 69 1009.6
20240224001803 73 89 5.0 12.0 0.00 0.00 0.00 68 1009.4
20240224000903 73 93 4.0 6.0 0.00 0.00 0.00 68 1009.4
20240224000003 74 95 4.0 4.0 0.00 0.00 0.00 68 1009.3
20240223235405 74 96 5.0 8.0 0.00 0.00 0.00 67 1009.3
20240223234503 74 95 4.0 8.0 0.00 0.00 0.00 66 1009.3
20240223233603 74 94 4.0 9.0 0.00 0.00 0.00 66 1009.2
20240223232703 74 92 4.0 7.0 0.00 0.00 0.00 65 1009.1
20240223231803 75 91 6.0 9.0 0.00 0.00 0.00 64 1009.1
20240223231115 75 90 6.0 9.0 0.00 0.00 0.00 64 1009.1
20240223230003 76 88 6.0 10.0 0.00 0.00 0.00 62 1009.1
20240223225404 76 87 5.0 8.0 0.00 0.00 0.00 61 1009.1
20240223224504 76 87 7.0 13.0 0.00 0.00 0.00 59 1009.1
20240223223813 77 87 5.0 12.0 0.00 0.00 0.00 58 1009.0
20240223222703 77 86 5.0 9.0 0.00 0.00 0.00 56 1009.0
20240223221804 77 86 6.0 5.0 0.00 0.00 0.00 55 1008.8
20240223221121 78 85 6.0 16.0 0.00 0.00 0.00 54 1008.7
20240223220003 78 85 6.0 9.0 0.00 0.00 0.00 53 1008.7
20240223215404 78 85 7.0 9.0 0.00 0.00 0.00 53 1008.6
20240223214716 78 85 7.0 7.0 0.00 0.00 0.00 53 1008.5
20240223213814 78 85 7.0 8.0 0.00 0.00 0.00 52 1008.6
20240223212703 79 85 7.0 12.0 0.00 0.00 0.00 52 1008.7
20240223211804 80 85 6.0 15.0 0.00 0.00 0.00 53 1008.6
20240223210904 80 85 6.0 8.0 0.00 0.00 0.00 54 1008.8
20240223210006 80 85 6.0 9.0 0.00 0.00 0.00 54 1008.8
20240223205403 80 85 6.0 7.0 0.00 0.00 0.00 54 1008.7
20240223204504 80 85 7.0 5.0 0.00 0.00 0.00 53 1008.8
20240223203603 80 85 6.0 11.0 0.00 0.00 0.00 53 1008.7
20240223202703 80 85 7.0 12.0 0.00 0.00 0.00 53 1008.7
20240223201803 80 85 7.0 8.0 0.00 0.00 0.00 53 1008.9
20240223200903 80 84 6.0 15.0 0.00 0.00 0.00 51 1008.9
20240223200005 80 85 5.0 11.0 0.00 0.00 0.00 50 1009.1
20240223195404 80 85 6.0 9.0 0.00 0.00 0.00 51 1009.1
20240223194504 80 84 7.0 13.0 0.00 0.00 0.00 50 1009.3
20240223193603 79 84 8.0 12.0 0.00 0.00 0.00 51 1009.4
20240223192703 80 85 8.0 12.0 0.00 0.00 0.00 50 1009.4
20240223191804 81 85 6.0 17.0 0.00 0.00 0.00 50 1009.5
20240223190904 81 85 7.0 12.0 0.00 0.00 0.00 50 1009.6
20240223190006 80 85 6.0 16.0 0.00 0.00 0.00 50 1009.9
20240223185405 80 85 5.0 7.0 0.00 0.00 0.00 52 1010.0
20240223184504 80 85 7.0 12.0 0.00 0.00 0.00 51 1010.2
20240223183603 80 85 7.0 9.0 0.00 0.00 0.00 51 1010.4
20240223182704 80 85 5.0 10.0 0.00 0.00 0.00 52 1010.5
20240223182015 79 85 5.0 12.0 0.00 0.00 0.00 52 1010.9
20240223180903 79 85 7.0 9.0 0.00 0.00 0.00 51 1011.0
20240223180215 79 85 5.0 12.0 0.00 0.00 0.00 49 1011.2
20240223175404 79 85 6.0 8.0 0.00 0.00 0.00 51 1011.2
20240223174503 79 85 6.0 11.0 0.00 0.00 0.00 51 1011.3
20240223173603 78 85 4.0 10.0 0.00 0.00 0.00 51 1011.4
20240223172914 78 85 4.0 4.0 0.00 0.00 0.00 52 1011.8
20240223171803 78 86 7.0 13.0 0.00 0.00 0.00 51 1012.1
20240223170903 79 86 4.0 9.0 0.00 0.00 0.00 50 1012.3
20240223170004 78 87 4.0 7.0 0.00 0.00 0.00 51 1012.5
20240223165403 78 87 4.0 7.0 0.00 0.00 0.00 53 1012.5
20240223164504 77 87 4.0 7.0 0.00 0.00 0.00 54 1012.7
20240223163603 76 87 4.0 5.0 0.00 0.00 0.00 56 1013.1
20240223162703 76 87 5.0 12.0 0.00 0.00 0.00 57 1013.2
20240223162017 76 87 5.0 8.0 0.00 0.00 0.00 58 1013.3
20240223160905 76 88 4.0 8.0 0.00 0.00 0.00 58 1013.6
20240223160216 76 89 4.0 10.0 0.00 0.00 0.00 60 1013.6
20240223155404 74 88 5.0 8.0 0.00 0.00 0.00 61 1013.7
20240223154503 75 89 4.0 3.0 0.00 0.00 0.00 62 1013.6
20240223153813 75 88 3.0 11.0 0.00 0.00 0.00 62 1013.6
20240223152915 74 88 3.0 4.0 0.00 0.00 0.00 63 1013.8
20240223151803 74 89 4.0 7.0 0.00 0.00 0.00 64 1014.1
20240223150905 74 89 3.0 5.0 0.00 0.00 0.00 64 1013.9
20240223150004 74 91 3.0 11.0 0.00 0.00 0.00 65 1013.9
20240223145404 73 91 2.0 7.0 0.00 0.00 0.00 65 1013.9
20240223144503 72 92 2.0 5.0 0.00 0.00 0.00 65 1013.9
20240223143604 72 94 2.0 2.0 0.00 0.00 0.00 64 1014.0
20240223142703 71 96 1.0 4.0 0.00 0.00 0.00 62 1014.0
20240223142013 70 95 2.0 3.0 0.00 0.00 0.00 62 1014.0
20240223140904 70 71 2.0 3.0 0.00 0.00 0.00 59 1014.1
20240223140218 70 71 1.0 2.0 0.00 0.00 0.00 58 1014.0
20240223135405 69 71 1.0 2.0 0.00 0.00 0.00 57 1014.0
20240223134503 68 71 1.0 1.0 0.00 0.00 0.00 57 1014.0
20240223133603 67 71 1.0 1.0 0.00 0.00 0.00 57 1014.1
20240223132703 66 71 0.0 2.0 0.00 0.00 0.00 60 1014.1
20240223131803 66 71 0.0 1.0 0.00 0.00 0.00 62 1014.1
20240223131116 65 71 0.0 0.0 0.00 0.00 0.00 65 1014.1
20240223130218 64 71 0.0 1.0 0.00 0.00 0.00 67 1014.0
20240223125404 63 71 0.0 1.0 0.00 0.00 0.00 70 1014.0
20240223124503 62 71 0.0 1.0 0.00 0.00 0.00 71 1013.9
20240223123814 62 0 0.0 0.0 0.00 0.00 0.00 73 1013.8
20240223122705 61 0 0.0 0.0 0.00 0.00 0.00 77 1013.6
20240223121803 60 71 0.0 0.0 0.00 0.00 0.00 78 1013.5
20240223120903 59 71 0.0 0.0 0.00 0.00 0.00 81 1013.4
20240223120004 59 0 0.0 0.0 0.00 0.00 0.00 83 1013.2
20240223115615 59 0 0.0 0.0 0.00 0.00 0.00 82 1013.1
20240223114713 59 0 0.0 0.0 0.00 0.00 0.00 81 1013.2
20240223113604 59 0 0.0 0.0 0.00 0.00 0.00 80 1013.2
20240223112703 59 0 0.0 0.0 0.00 0.00 0.00 80 1013.2
20240223111803 59 0 0.0 0.0 0.00 0.00 0.00 79 1013.1
20240223110906 59 0 0.0 0.0 0.00 0.00 0.00 78 1012.9
20240223110003 59 0 0.0 0.0 0.00 0.00 0.00 78 1012.9
20240223105616 59 0 0.0 0.0 0.00 0.00 0.00 79 1012.9
20240223104503 59 0 0.0 0.0 0.00 0.00 0.00 80 1012.9
20240223103603 59 0 0.0 0.0 0.00 0.00 0.00 80 1012.9
20240223102703 59 0 0.0 0.0 0.00 0.00 0.00 81 1012.8
20240223101803 59 0 0.0 0.0 0.00 0.00 0.00 81 1012.9
20240223100903 60 0 0.0 0.0 0.00 0.00 0.00 81 1012.8
20240223100004 60 0 0.0 0.0 0.00 0.00 0.00 81 1012.7
20240223095404 60 71 0.0 0.0 0.00 0.00 0.00 80 1012.7
20240223094506 60 0 0.0 0.0 0.00 0.00 0.00 81 1012.5
20240223093604 60 0 0.0 0.0 0.00 0.00 0.00 81 1012.5
20240223092703 60 0 0.0 0.0 0.00 0.00 0.00 82 1012.6
20240223091803 60 71 0.0 0.0 0.00 0.00 0.00 83 1012.6
20240223090903 60 0 0.0 0.0 0.00 0.00 0.00 83 1012.4
20240223090003 60 71 0.0 0.0 0.00 0.00 0.00 83 1012.4
20240223085403 60 71 0.0 0.0 0.00 0.00 0.00 84 1012.3
20240223084715 60 0 0.0 0.0 0.00 0.00 0.00 84 1012.2
20240223083603 60 71 0.0 0.0 0.00 0.00 0.00 85 1012.3
20240223082703 60 71 0.0 0.0 0.00 0.00 0.00 85 1012.2
20240223081805 61 0 0.0 0.0 0.00 0.00 0.00 85 1012.3
20240223080905 61 71 0.0 0.0 0.00 0.00 0.00 85 1012.5
20240223080005 62 71 0.0 0.0 0.00 0.00 0.00 85 1012.6
20240223075404 62 71 0.0 0.0 0.00 0.00 0.00 85 1012.6
20240223074715 62 0 0.0 0.0 0.00 0.00 0.00 86 1012.6
20240223073813 63 71 0.0 1.0 0.00 0.00 0.00 86 1012.7
20240223072703 63 71 0.0 0.0 0.00 0.00 0.00 86 1012.9
20240223071804 63 71 0.0 0.0 0.00 0.00 0.00 86 1013.1
20240223070904 64 71 0.0 0.0 0.00 0.00 0.00 85 1013.1
20240223070003 64 71 0.0 1.0 0.00 0.00 0.00 85 1013.2
20240223065405 64 71 0.0 0.0 0.00 0.00 0.00 84 1013.1
20240223064716 64 71 0.0 1.0 0.00 0.00 0.00 84 1013.0
20240223063604 65 71 0.0 0.0 0.00 0.00 0.00 83 1013.1
20240223062704 65 71 0.0 2.0 0.00 0.00 0.00 82 1013.2
20240223061804 66 71 1.0 1.0 0.00 0.00 0.00 82 1013.2
20240223060903 66 71 0.0 1.0 0.00 0.00 0.00 81 1013.4
20240223060004 66 71 1.0 2.0 0.00 0.00 0.00 81 1013.4
20240223055403 66 71 1.0 1.0 0.00 0.00 0.00 81 1013.4
20240223054503 66 71 1.0 3.0 0.00 0.00 0.00 81 1013.6
20240223053603 66 71 1.0 1.0 0.00 0.00 0.00 81 1013.7
20240223052916 66 71 0.0 1.0 0.00 0.00 0.00 81 1013.7
20240223051803 66 71 0.0 1.0 0.00 0.00 0.00 81 1013.9
20240223050905 66 71 0.0 1.0 0.00 0.00 0.00 81 1014.1
20240223050010 66 71 0.0 1.0 0.00 0.00 0.00 81 1014.1
20240223045404 66 71 0.0 1.0 0.00 0.00 0.00 80 1014.2
20240223044503 66 71 0.0 0.0 0.00 0.00 0.00 80 1014.2
20240223043604 66 71 0.0 1.0 0.00 0.00 0.00 80 1014.1
20240223042705 66 71 1.0 1.0 0.00 0.00 0.00 80 1013.9
20240223041803 66 71 0.0 2.0 0.00 0.00 0.00 80 1013.8
20240223041117 66 71 0.0 2.0 0.00 0.00 0.00 81 1013.8
20240223040004 65 71 0.0 0.0 0.00 0.00 0.00 80 1013.8
20240223035403 65 71 0.0 0.0 0.00 0.00 0.00 80 1014.0
20240223034503 65 71 0.0 1.0 0.00 0.00 0.00 80 1014.1
20240223033603 65 71 0.0 1.0 0.00 0.00 0.00 80 1014.0
20240223032703 65 71 0.0 1.0 0.00 0.00 0.00 80 1014.2
20240223031805 65 71 0.0 0.0 0.00 0.00 0.00 80 1014.3